Change the Weather History Date:

Monday, July 1, 2013

  Actual Average (KBOI) Record (KBOI)
Temperature  
Mean Temperature 89 °F 72 °F  
Max Temperature 107 °F 87 °F 110 °F (2013)
Min Temperature 71 °F 57 °F 40 °F (1935)
Degree Days  
Heating Degree Days 0 1  
Month to date heating degree days 1  
Since 1 June heating degree days 65  
Since 1 July heating degree days 1  
Cooling Degree Days 24 8  
Month to date cooling degree days 8  
Year to date cooling degree days 191  
Since 1 June cooling degree days 147  
Growing Degree Days 39 (Base 50)    
Moisture  
Dew Point 52 °F    
Average Humidity 28    
Maximum Humidity 60    
Minimum Humidity 11    
Precipitation  
Precipitation 0.00 in 0.01 in 0.70 in (1983)
Month to date precipitation 0.01  
Year to date precipitation 6.94  
Snow  
Snow 0.00 in 0.00 in 0.00 in (2006)
Month to date snowfall 0.0  
Since 1 July snowfall 0.0  
Snow Depth -    
Sea Level Pressure  
Sea Level Pressure 29.94 in    
Wind  
Wind Speed 8 mph (North)    
Max Wind Speed 21 mph    
Max Gust Speed 34 mph    
Visibility 10 miles    
Events      
T = Trace of Precipitation, MM = Missing Value Source: NWS Daily Summary

Daily Weather History Graph

Daily Weather History Graph

Search for Another Location

Airport or City:

Trip Planner

Search our weather history database for the weather conditions in past years. The results will help you decide how hot, cold, wet, or windy it might be!

Date:

Astronomy

Jul. 01, 2013 Rise Set
Actual Time 6:08 AM MDT 9:31 PM MDT
Civil Twilight 5:33 AM MDT 10:06 PM MDT
Nautical Twilight 4:46 AM MDT 10:53 PM MDT
Astronomical Twilight 3:48 AM MDT 11:50 PM MDT
Moon 1:48 AM MDT (7/1) 3:44 PM MDT (7/1)
Length of Visible Light 16h 33m
Length of Day
15h 22m
Waning Crescent, 35% of the Moon is Illuminated
Jul 1
Waning Crescent
Jul 8
New
Jul 15
First Quarter
Jul 22
Full
Jul 29
Last Quarter

Hourly Weather History & Observations

Time (MDT) Temp. Heat Index Dew Point Humidity Pressure Visibility Wind Dir Wind Speed Gust Speed Precip Events Conditions
12:15 AM 84.2 °F - 50.0 °F 30% 29.91 in 10.0 mi NW 4.6 mph - N/A   Clear
12:35 AM 82.4 °F - 50.0 °F 32% 29.92 in 10.0 mi NW 6.9 mph - N/A   Clear
12:55 AM 82.4 °F 81.4 °F 53.6 °F 37% 29.92 in 10.0 mi WNW 6.9 mph - N/A   Clear
1:15 AM 80.6 °F 80.3 °F 53.6 °F 39% 29.93 in 10.0 mi WSW 4.6 mph - N/A   Clear
1:35 AM 77.0 °F - 55.4 °F 47% 29.93 in 10.0 mi Calm Calm - N/A   Clear
1:55 AM 77.0 °F - 55.4 °F 47% 29.93 in 10.0 mi WSW 4.6 mph - N/A   Clear
2:15 AM 78.8 °F - 55.4 °F 44% 29.96 in 10.0 mi WSW 15.0 mph 19.6 mph N/A   Clear
2:35 AM 86.0 °F - 50.0 °F 29% 29.96 in 10.0 mi West 15.0 mph 21.9 mph N/A   Partly Cloudy
2:55 AM 86.0 °F - 50.0 °F 29% 29.95 in 10.0 mi WNW 11.5 mph - N/A   Partly Cloudy
3:15 AM 86.0 °F - 50.0 °F 29% 29.93 in 10.0 mi NNW 11.5 mph - N/A   Clear
3:35 AM 86.0 °F - 50.0 °F 29% 29.91 in 10.0 mi NNE 12.7 mph - N/A   Partly Cloudy
3:55 AM 80.6 °F 80.3 °F 53.6 °F 39% 29.91 in 10.0 mi ENE 13.8 mph 20.7 mph N/A   Clear
4:15 AM 78.8 °F - 53.6 °F 42% 29.91 in 10.0 mi East 11.5 mph - N/A   Clear
4:35 AM 80.6 °F 80.3 °F 53.6 °F 39% 29.93 in 10.0 mi ESE 5.8 mph 17.3 mph N/A   Clear
4:55 AM 78.8 °F - 53.6 °F 42% 29.94 in 10.0 mi West 8.1 mph - N/A   Clear
5:15 AM 77.0 °F - 55.4 °F 47% 29.94 in 10.0 mi Calm Calm - N/A   Clear
5:35 AM 75.2 °F - 55.4 °F 50% 29.95 in 10.0 mi SE 8.1 mph - N/A   Clear
5:55 AM 75.2 °F - 55.4 °F 50% 29.96 in 10.0 mi Calm Calm - N/A   Clear
6:15 AM 75.2 °F - 55.4 °F 50% 29.97 in 10.0 mi South 3.5 mph - N/A   Clear
6:35 AM 71.6 °F - 55.4 °F 57% 29.97 in 10.0 mi Calm Calm - N/A   Clear
6:55 AM 73.4 °F - 57.2 °F 57% 29.97 in 10.0 mi Calm Calm - N/A   Clear
7:15 AM 71.6 °F - 57.2 °F 60% 29.98 in 10.0 mi ESE 3.5 mph - N/A   Clear
7:35 AM 75.2 °F - 55.4 °F 50% 29.98 in 10.0 mi East 4.6 mph - N/A   Clear
7:55 AM 77.0 °F - 57.2 °F 50% 29.99 in 10.0 mi East 8.1 mph - N/A   Clear
8:15 AM 80.6 °F 80.3 °F 53.6 °F 39% 30.00 in 10.0 mi SE 6.9 mph - N/A   Clear
8:35 AM 80.6 °F 80.3 °F 53.6 °F 39% 30.00 in 10.0 mi East 6.9 mph - N/A   Clear
8:55 AM 82.4 °F - 51.8 °F 35% 30.00 in 10.0 mi ESE 8.1 mph - N/A   Clear
9:15 AM 84.2 °F 82.8 °F 53.6 °F 35% 30.00 in 10.0 mi SE 9.2 mph - N/A   Clear
9:35 AM 86.0 °F 84.2 °F 53.6 °F 33% 30.00 in 10.0 mi SE 8.1 mph - N/A   Clear
9:55 AM 89.6 °F 87.3 °F 53.6 °F 29% 29.99 in 10.0 mi SE 9.2 mph - N/A   Clear
10:15 AM 91.4 °F - 50.0 °F 24% 29.99 in 10.0 mi SE 11.5 mph 17.3 mph N/A   Clear
10:35 AM 91.4 °F - 50.0 °F 24% 29.99 in 10.0 mi SE 9.2 mph - N/A   Clear
10:55 AM 93.2 °F - 50.0 °F 23% 29.98 in 10.0 mi SE 8.1 mph - N/A   Clear
11:15 AM 95.0 °F - 50.0 °F 22% 29.98 in 10.0 mi ESE 12.7 mph - N/A   Clear
11:35 AM 96.8 °F - 50.0 °F 20% 29.98 in 10.0 mi SE 10.4 mph - N/A   Clear
11:55 AM 98.6 °F - 50.0 °F 19% 29.97 in 10.0 mi ESE 9.2 mph - N/A   Clear
12:15 PM 98.6 °F - 51.8 °F 21% 29.97 in 10.0 mi East 11.5 mph - N/A   Clear
12:35 PM 100.4 °F - 50.0 °F 18% 29.96 in 10.0 mi East 9.2 mph 16.1 mph N/A   Clear
12:55 PM 100.4 °F - 51.8 °F 20% 29.96 in 10.0 mi East 10.4 mph - N/A   Clear
1:15 PM 102.2 °F - 51.8 °F 18% 29.95 in 10.0 mi East 9.2 mph - N/A   Clear
1:35 PM 100.4 °F 98.4 °F 53.6 °F 21% 29.95 in 10.0 mi NE 6.9 mph - N/A   Clear
1:55 PM 100.4 °F 98.4 °F 53.6 °F 21% 29.94 in 10.0 mi NNE 11.5 mph - N/A   Clear
2:15 PM 102.2 °F 100.4 °F 53.6 °F 20% 29.94 in 10.0 mi NE 8.1 mph - N/A   Clear
2:35 PM 102.2 °F 100.4 °F 53.6 °F 20% 29.93 in 10.0 mi NNE 5.8 mph - N/A   Clear
2:55 PM 104.0 °F - 51.8 °F 17% 29.92 in 10.0 mi NE 4.6 mph - N/A   Clear
3:15 PM 104.0 °F 102.3 °F 53.6 °F 19% 29.91 in 10.0 mi North 5.8 mph - N/A   Clear
3:35 PM 104.0 °F 102.9 °F 55.4 °F 20% 29.91 in 10.0 mi NNW 8.1 mph - N/A   Clear
3:55 PM 104.0 °F 102.3 °F 53.6 °F 19% 29.90 in 10.0 mi North 6.9 mph - N/A   Clear
4:15 PM 104.0 °F 102.3 °F 53.6 °F 19% 29.90 in 10.0 mi NNW 6.9 mph - N/A   Clear
4:35 PM 105.8 °F 104.3 °F 53.6 °F 18% 29.89 in 10.0 mi North 9.2 mph - N/A   Clear
4:55 PM 104.0 °F 102.3 °F 53.6 °F 19% 29.89 in 10.0 mi NNW 8.1 mph - N/A   Clear
5:15 PM 105.8 °F 104.3 °F 53.6 °F 18% 29.88 in 10.0 mi NW 10.4 mph - N/A   Clear
5:35 PM 107.6 °F - 50.0 °F 15% 29.88 in 10.0 mi NNW 11.5 mph - N/A   Clear
5:55 PM 107.6 °F - 46.4 °F 13% 29.88 in 10.0 mi NNW 10.4 mph - N/A   Clear
6:15 PM 107.6 °F - 46.4 °F 13% 29.87 in 10.0 mi NNW 10.4 mph - N/A   Clear
6:35 PM 105.8 °F - 48.2 °F 14% 29.87 in 10.0 mi NNW 9.2 mph - N/A   Clear
6:55 PM 105.8 °F - 50.0 °F 15% 29.87 in 10.0 mi NNW 8.1 mph - N/A   Clear
7:15 PM 105.8 °F - 46.4 °F 14% 29.87 in 10.0 mi NW 9.2 mph - N/A   Clear
7:35 PM 105.8 °F - 46.4 °F 14% 29.87 in 10.0 mi NNW 8.1 mph - N/A   Clear
7:55 PM 104.0 °F - 48.2 °F 15% 29.87 in 10.0 mi NW 8.1 mph - N/A   Clear
8:15 PM 102.2 °F 100.9 °F 55.4 °F 21% 29.88 in 10.0 mi West 6.9 mph - N/A   Clear
8:35 PM 98.6 °F 98.5 °F 59.0 °F 27% 29.88 in 10.0 mi WNW 6.9 mph - N/A   Clear
8:55 PM 95.0 °F 96.0 °F 62.6 °F 34% 29.89 in 10.0 mi SSW 8.1 mph - N/A   Clear
9:15 PM 95.0 °F 93.7 °F 57.2 °F 28% 29.91 in 10.0 mi West 11.5 mph 16.1 mph N/A   Clear
9:35 PM 95.0 °F 92.7 °F 53.6 °F 25% 29.91 in 10.0 mi West 13.8 mph 18.4 mph N/A   Clear
9:55 PM 96.8 °F - 46.4 °F 18% 29.93 in 10.0 mi West 15.0 mph 24.2 mph N/A   Clear
10:15 PM 98.6 °F - 44.6 °F 16% 29.92 in 10.0 mi West 20.7 mph 34.5 mph N/A   Clear
10:35 PM 98.6 °F - 44.6 °F 16% 29.93 in 10.0 mi West 8.1 mph 17.3 mph N/A   Mostly Cloudy
10:55 PM 98.6 °F - 42.8 °F 15% 29.93 in 10.0 mi WSW 12.7 mph 21.9 mph N/A   Scattered Clouds
11:15 PM 100.4 °F - 37.4 °F 11% 29.94 in 10.0 mi NE 9.2 mph 25.3 mph N/A   Mostly Cloudy
11:35 PM 98.6 °F - 46.4 °F 17% 29.96 in 10.0 mi NNW 5.8 mph - N/A   Partly Cloudy
11:55 PM 96.8 °F - 39.2 °F 14% 29.97 in 10.0 mi WNW 8.1 mph - N/A   Partly Cloudy